| time (UTC) | temp F | wind direction | speed knots | gust knots | rain 1hr in | rain 24hr in | rain mn in | humidity % | barometer mb |
| 20260831144602 | 65 | 15 | 2.6 | 6.1 | 0.00 | 0.20 | 0.01 | 72 | 1019.5 |
| 20260831143601 | 65 | 290 | 1.7 | 5.2 | 0.00 | 0.20 | 0.01 | 73 | 1019.6 |
| 20260831143520 | 65 | 236 | 1.7 | 5.2 | 0.00 | 0.20 | 0.01 | 74 | 1019.7 |
| 20260831141601 | 64 | 296 | 1.7 | 6.1 | 0.00 | 0.20 | 0.01 | 74 | 1019.7 |
| 20260831140601 | 63 | 286 | 1.7 | 6.1 | 0.00 | 0.20 | 0.01 | 74 | 1019.6 |
| 20260831135601 | 62 | 355 | 2.6 | 6.1 | 0.00 | 0.20 | 0.01 | 70 | 1019.4 |
| 20260831134600 | 62 | 254 | 2.6 | 5.2 | 0.00 | 0.20 | 0.01 | 65 | 1019.4 |
| 20260831134526 | 61 | 280 | 2.6 | 6.1 | 0.00 | 0.20 | 0.01 | 58 | 1019.3 |
| 20260831132601 | 60 | 261 | 1.7 | 6.1 | 0.00 | 0.20 | 0.01 | 54 | 1019.4 |
| 20260831131601 | 59 | 271 | 2.6 | 6.1 | 0.00 | 0.20 | 0.01 | 52 | 1019.3 |
| 20260831130600 | 59 | 291 | 1.7 | 5.2 | 0.00 | 0.20 | 0.01 | 53 | 1019.2 |
| 20260831125601 | 58 | 316 | 1.7 | 3.5 | 0.00 | 0.20 | 0.01 | 53 | 1019.1 |
| 20260831124601 | 57 | 275 | 0.9 | 4.3 | 0.00 | 0.20 | 0.01 | 54 | 1019.0 |
| 20260831124040 | 57 | 229 | 0.9 | 2.6 | 0.00 | 0.20 | 0.01 | 54 | 1019.0 |
| 20260831122601 | 56 | 288 | 0.0 | 2.6 | 0.00 | 0.20 | 0.01 | 55 | 1019.0 |
| 20260831121601 | 55 | 292 | 0.9 | 2.6 | 0.00 | 0.20 | 0.01 | 55 | 1019.1 |
| 20260831120601 | 55 | 252 | 0.0 | 2.6 | 0.00 | 0.20 | 0.01 | 55 | 1019.0 |
| 20260831115600 | 54 | 184 | 0.0 | 1.7 | 0.00 | 0.20 | 0.01 | 56 | 1019.1 |
| 20260831114600 | 53 | 234 | 0.0 | 0.0 | 0.00 | 0.20 | 0.01 | 56 | 1019.1 |
| 20260831114040 | 53 | 252 | 0.0 | 0.0 | 0.00 | 0.20 | 0.01 | 56 | 1019.0 |
| 20260831113039 | 51 | 236 | 0.0 | 0.0 | 0.00 | 0.20 | 0.01 | 57 | 1019.0 |
| 20260831111601 | 50 | 238 | 0.0 | 0.0 | 0.00 | 0.20 | 0.01 | 58 | 1018.9 |
| 20260831110602 | 49 | 212 | 0.0 | 0.0 | 0.00 | 0.20 | 0.01 | 58 | 1019.0 |
| 20260831105601 | 48 | 275 | 0.0 | 0.0 | 0.00 | 0.20 | 0.01 | 59 | 1018.9 |
| 20260831104601 | 48 | 275 | 0.0 | 0.0 | 0.00 | 0.20 | 0.01 | 59 | 1018.7 |
| 20260831103601 | 47 | 275 | 0.0 | 0.0 | 0.00 | 0.20 | 0.01 | 59 | 1018.6 |
| 20260831102601 | 47 | 5 | 0.0 | 0.0 | 0.00 | 0.20 | 0.01 | 59 | 1018.4 |
| 20260831102043 | 47 | 5 | 0.0 | 0.0 | 0.00 | 0.20 | 0.01 | 59 | 1018.2 |
| 20260831100601 | 47 | 5 | 0.0 | 0.0 | 0.00 | 0.20 | 0.01 | 59 | 1018.2 |
| 20260831095601 | 48 | 5 | 0.0 | 0.0 | 0.00 | 0.20 | 0.01 | 59 | 1018.0 |
| 20260831094601 | 49 | 5 | 0.0 | 0.0 | 0.00 | 0.20 | 0.01 | 59 | 1018.0 |
| 20260831094039 | 48 | 5 | 0.0 | 0.0 | 0.00 | 0.20 | 0.01 | 59 | 1017.8 |
| 20260831092601 | 49 | 5 | 0.0 | 0.0 | 0.00 | 0.20 | 0.01 | 59 | 1017.8 |
| 20260831091601 | 49 | 5 | 0.0 | 0.0 | 0.00 | 0.20 | 0.01 | 59 | 1017.6 |
| 20260831090602 | 48 | 5 | 0.0 | 0.0 | 0.00 | 0.20 | 0.01 | 59 | 1017.5 |
| 20260831085601 | 48 | 5 | 0.0 | 0.0 | 0.00 | 0.20 | 0.01 | 59 | 1017.4 |
| 20260831085035 | 48 | 5 | 0.0 | 0.0 | 0.00 | 0.20 | 0.01 | 59 | 1017.2 |
| 20260831084043 | 48 | 5 | 0.0 | 0.0 | 0.00 | 0.20 | 0.01 | 59 | 1017.1 |
| 20260831082558 | 48 | 5 | 0.0 | 0.0 | 0.00 | 0.20 | 0.01 | 59 | 1017.1 |
| 20260831081556 | 48 | 5 | 0.0 | 0.0 | 0.00 | 0.20 | 0.01 | 60 | 1017.2 |
| 20260831080554 | 49 | 5 | 0.0 | 0.0 | 0.00 | 0.20 | 0.01 | 59 | 1017.0 |
| 20260831075550 | 50 | 281 | 0.0 | 0.0 | 0.00 | 0.20 | 0.01 | 59 | 1017.1 |
| 20260831074550 | 50 | 281 | 0.0 | 0.0 | 0.00 | 0.20 | 0.01 | 58 | 1017.1 |
| 20260831073549 | 50 | 281 | 0.0 | 0.0 | 0.00 | 0.20 | 0.01 | 58 | 1017.1 |
| 20260831072546 | 51 | 281 | 0.0 | 0.0 | 0.00 | 0.20 | 0.01 | 58 | 1017.1 |
| 20260831071544 | 51 | 281 | 0.0 | 0.0 | 0.01 | 0.20 | 0.01 | 58 | 1017.1 |
| 20260831070544 | 51 | 281 | 0.0 | 0.0 | 0.01 | 0.20 | 0.01 | 58 | 1017.0 |
| 20260831070034 | 51 | 281 | 0.0 | 0.0 | 0.01 | 0.20 | 0.01 | 58 | 1016.9 |
| 20260831064541 | 51 | 281 | 0.0 | 0.0 | 0.01 | 0.20 | 0.01 | 58 | 1016.8 |
| 20260831064026 | 52 | 281 | 0.0 | 0.0 | 0.01 | 0.20 | 0.01 | 58 | 1016.8 |
| 20260831062537 | 52 | 281 | 0.0 | 0.0 | 0.01 | 0.20 | 0.01 | 58 | 1016.9 |
| 20260831061536 | 53 | 281 | 0.0 | 0.0 | 0.00 | 0.19 | 0.00 | 57 | 1016.9 |
| 20260831060537 | 53 | 281 | 0.0 | 0.0 | 0.00 | 0.19 | 0.00 | 57 | 1016.8 |
| 20260831055534 | 53 | 281 | 0.0 | 0.0 | 0.00 | 0.19 | 0.00 | 57 | 1016.7 |
| 20260831054532 | 53 | 281 | 0.0 | 0.9 | 0.00 | 0.19 | 0.00 | 57 | 1016.6 |
| 20260831053529 | 54 | 281 | 0.0 | 1.7 | 0.00 | 0.19 | 0.00 | 57 | 1016.6 |
| 20260831052529 | 54 | 216 | 0.0 | 0.0 | 0.00 | 0.19 | 0.00 | 57 | 1016.5 |
| 20260831051528 | 54 | 216 | 0.0 | 0.0 | 0.00 | 0.19 | 0.00 | 57 | 1016.4 |
| 20260831050528 | 55 | 290 | 0.0 | 1.7 | 0.00 | 0.19 | 0.00 | 57 | 1016.5 |
| 20260831045529 | 55 | 290 | 0.0 | 1.7 | 0.00 | 0.19 | 0.00 | 57 | 1016.3 |
| 20260831044529 | 55 | 301 | 0.0 | 2.6 | 0.00 | 0.19 | 0.00 | 57 | 1016.3 |
| 20260831043528 | 56 | 271 | 0.9 | 3.5 | 0.00 | 0.19 | 0.00 | 57 | 1016.1 |
| 20260831043012 | 56 | 297 | 0.9 | 3.5 | 0.00 | 0.19 | 0.00 | 57 | 1016.2 |
| 20260831041529 | 56 | 287 | 0.9 | 1.7 | 0.00 | 0.19 | 0.00 | 57 | 1016.0 |
| 20260831040528 | 56 | 287 | 0.0 | 2.6 | 0.00 | 0.19 | 0.00 | 57 | 1015.9 |
| 20260831040002 | 56 | 313 | 0.0 | 1.7 | 0.00 | 0.19 | 0.19 | 58 | 1015.8 |
| 20260831034529 | 56 | 292 | 0.0 | 2.6 | 0.00 | 0.19 | 0.19 | 58 | 1015.7 |
| 20260831034007 | 57 | 281 | 0.9 | 3.5 | 0.00 | 0.19 | 0.19 | 58 | 1015.6 |
| 20260831032528 | 58 | 282 | 1.7 | 3.5 | 0.00 | 0.19 | 0.19 | 57 | 1015.6 |
| 20260831031529 | 58 | 236 | 1.7 | 3.5 | 0.01 | 0.19 | 0.19 | 57 | 1015.7 |
| 20260831030528 | 58 | 263 | 0.9 | 2.6 | 0.01 | 0.19 | 0.19 | 57 | 1015.7 |
| 20260831025529 | 58 | 290 | 0.0 | 1.7 | 0.01 | 0.19 | 0.19 | 58 | 1015.6 |
| 20260831024529 | 58 | 290 | 0.0 | 1.7 | 0.02 | 0.19 | 0.19 | 58 | 1015.5 |
| 20260831023530 | 58 | 290 | 0.0 | 1.7 | 0.02 | 0.19 | 0.19 | 59 | 1015.5 |
| 20260831022529 | 58 | 266 | 0.0 | 0.9 | 0.02 | 0.19 | 0.19 | 60 | 1015.2 |
| 20260831021529 | 58 | 266 | 0.0 | 1.7 | 0.02 | 0.18 | 0.18 | 61 | 1015.2 |
| 20260831020529 | 58 | 193 | 0.0 | 1.7 | 0.06 | 0.18 | 0.18 | 62 | 1014.9 |
| 20260831015528 | 58 | 305 | 0.0 | 0.9 | 0.10 | 0.18 | 0.17 | 63 | 1015.3 |
| 20260831014525 | 59 | 305 | 0.0 | 2.6 | 0.17 | 0.17 | 0.17 | 65 | 1015.4 |
| 20260831014452 | 59 | 305 | 0.0 | 2.6 | 0.17 | 0.17 | 0.17 | 66 | 1015.6 |
| 20260831012525 | 59 | 289 | 0.0 | 1.7 | 0.17 | 0.17 | 0.17 | 69 | 1015.7 |
| 20260831011525 | 60 | 289 | 0.9 | 2.6 | 0.16 | 0.16 | 0.15 | 71 | 1015.9 |
| 20260831010519 | 61 | 248 | 0.9 | 7.8 | 0.12 | 0.12 | 0.12 | 74 | 1016.3 |
| 20260831005519 | 64 | 286 | 1.7 | 7.8 | 0.08 | 0.08 | 0.08 | 75 | 1016.1 |
| 20260831004516 | 65 | 265 | 0.0 | 1.7 | 0.00 | 0.00 | 0.00 | 75 | 1015.3 |
| 20260831003518 | 64 | 54 | 0.0 | 0.0 | 0.00 | 0.00 | 0.00 | 73 | 1014.7 |
| 20260831002517 | 65 | 279 | 0.0 | 0.0 | 0.00 | 0.00 | 0.00 | 74 | 1014.3 |
| 20260831001518 | 66 | 279 | 0.0 | 0.9 | 0.00 | 0.00 | 0.00 | 75 | 1013.9 |
| 20260831000955 | 66 | 279 | 0.9 | 3.5 | 0.00 | 0.00 | 0.00 | 75 | 1013.8 |
| 20260831000004 | 66 | 279 | 0.9 | 3.5 | 0.00 | 0.00 | 0.00 | 75 | 1013.6 |
| 20260830234516 | 66 | 205 | 1.7 | 4.3 | 0.00 | 0.00 | 0.00 | 75 | 1013.4 |
| 20260830233518 | 66 | 201 | 0.9 | 4.3 | 0.00 | 0.00 | 0.00 | 75 | 1013.4 |
| 20260830232517 | 67 | 225 | 0.9 | 2.6 | 0.00 | 0.00 | 0.00 | 75 | 1013.4 |
| 20260830231517 | 67 | 289 | 0.9 | 5.2 | 0.00 | 0.00 | 0.00 | 75 | 1013.5 |
| 20260830230517 | 67 | 275 | 1.7 | 5.2 | 0.00 | 0.00 | 0.00 | 75 | 1013.4 |
| 20260830230003 | 67 | 196 | 1.7 | 4.3 | 0.00 | 0.00 | 0.00 | 75 | 1013.4 |
| 20260830224518 | 68 | 252 | 0.0 | 3.5 | 0.00 | 0.00 | 0.00 | 75 | 1013.3 |
| 20260830224003 | 69 | 277 | 0.9 | 2.6 | 0.00 | 0.00 | 0.00 | 74 | 1013.4 |
| 20260830222517 | 69 | 252 | 0.9 | 3.5 | 0.00 | 0.00 | 0.00 | 75 | 1013.2 |
| 20260830221511 | 69 | 219 | 1.7 | 4.3 | 0.00 | 0.00 | 0.00 | 74 | 1013.3 |
| 20260830220511 | 69 | 217 | 0.9 | 5.2 | 0.00 | 0.00 | 0.00 | 74 | 1013.3 |
| 20260830215511 | 69 | 232 | 1.7 | 5.2 | 0.00 | 0.00 | 0.00 | 73 | 1013.2 |
| 20260830214511 | 70 | 225 | 1.7 | 5.2 | 0.00 | 0.00 | 0.00 | 74 | 1013.3 |
| 20260830213512 | 70 | 260 | 1.7 | 6.1 | 0.00 | 0.00 | 0.00 | 73 | 1013.1 |
| 20260830212953 | 70 | 267 | 1.7 | 7.0 | 0.00 | 0.00 | 0.00 | 74 | 1013.1 |
| 20260830211509 | 70 | 205 | 2.6 | 7.0 | 0.00 | 0.00 | 0.00 | 73 | 1013.1 |
| 20260830210509 | 70 | 190 | 1.7 | 6.1 | 0.00 | 0.00 | 0.00 | 74 | 1013.2 |
| 20260830205509 | 70 | 265 | 1.7 | 7.8 | 0.00 | 0.00 | 0.00 | 73 | 1013.3 |
| 20260830204509 | 70 | 172 | 2.6 | 7.8 | 0.00 | 0.00 | 0.00 | 72 | 1013.2 |
| 20260830203509 | 70 | 286 | 3.5 | 10.4 | 0.00 | 0.00 | 0.00 | 73 | 1013.2 |
| 20260830202508 | 70 | 253 | 2.6 | 10.4 | 0.00 | 0.00 | 0.00 | 74 | 1013.2 |
| 20260830201509 | 70 | 275 | 1.7 | 6.1 | 0.00 | 0.00 | 0.00 | 74 | 1013.6 |
| 20260830200509 | 71 | 256 | 2.6 | 7.0 | 0.00 | 0.00 | 0.00 | 74 | 1013.6 |
| 20260830195509 | 71 | 213 | 1.7 | 7.0 | 0.00 | 0.00 | 0.00 | 74 | 1013.5 |
| 20260830194509 | 71 | 202 | 1.7 | 7.0 | 0.00 | 0.00 | 0.00 | 73 | 1013.5 |
| 20260830193508 | 71 | 268 | 2.6 | 7.0 | 0.00 | 0.00 | 0.00 | 74 | 1013.6 |
| 20260830192503 | 71 | 202 | 1.7 | 6.1 | 0.00 | 0.00 | 0.00 | 74 | 1013.8 |
| 20260830191501 | 70 | 266 | 1.7 | 7.8 | 0.00 | 0.00 | 0.00 | 74 | 1014.0 |
| 20260830190501 | 70 | 328 | 2.6 | 7.8 | 0.00 | 0.00 | 0.00 | 73 | 1014.0 |
| 20260830185501 | 70 | 211 | 1.7 | 7.0 | 0.00 | 0.00 | 0.00 | 74 | 1014.2 |
| 20260830184501 | 69 | 273 | 2.6 | 7.8 | 0.00 | 0.00 | 0.00 | 74 | 1014.3 |
| 20260830183501 | 70 | 231 | 1.7 | 7.8 | 0.00 | 0.00 | 0.00 | 74 | 1014.4 |
| 20260830183422 | 69 | 213 | 1.7 | 7.0 | 0.00 | 0.00 | 0.00 | 74 | 1014.6 |
| 20260830181500 | 69 | 298 | 0.9 | 5.2 | 0.00 | 0.00 | 0.00 | 74 | 1014.8 |
| 20260830180502 | 69 | 182 | 0.9 | 4.3 | 0.00 | 0.00 | 0.00 | 74 | 1014.9 |
| 20260830175501 | 69 | 239 | 0.0 | 4.3 | 0.00 | 0.00 | 0.00 | 74 | 1015.0 |
| 20260830174500 | 69 | 318 | 0.0 | 4.3 | 0.00 | 0.00 | 0.00 | 74 | 1015.0 |
| 20260830173501 | 69 | 190 | 0.0 | 4.3 | 0.00 | 0.00 | 0.00 | 74 | 1015.1 |
| 20260830172500 | 69 | 202 | 0.0 | 5.2 | 0.00 | 0.00 | 0.00 | 74 | 1015.2 |
| 20260830171501 | 69 | 298 | 0.9 | 5.2 | 0.00 | 0.00 | 0.00 | 74 | 1015.4 |
| 20260830170942 | 69 | 298 | 0.0 | 4.3 | 0.00 | 0.00 | 0.00 | 74 | 1015.3 |
| 20260830165501 | 70 | 240 | 0.0 | 2.6 | 0.00 | 0.00 | 0.00 | 74 | 1015.3 |
| 20260830164500 | 70 | 239 | 0.0 | 0.0 | 0.00 | 0.00 | 0.00 | 73 | 1015.3 |
| 20260830163501 | 70 | 208 | 0.0 | 5.2 | 0.00 | 0.00 | 0.00 | 72 | 1015.4 |
| 20260830162501 | 71 | 126 | 0.9 | 6.1 | 0.00 | 0.00 | 0.00 | 72 | 1015.4 |
| 20260830161500 | 71 | 232 | 0.0 | 4.3 | 0.00 | 0.00 | 0.00 | 72 | 1015.3 |
| 20260830160501 | 71 | 252 | 0.9 | 4.3 | 0.00 | 0.00 | 0.00 | 71 | 1015.5 |
| 20260830155501 | 71 | 267 | 0.0 | 3.5 | 0.00 | 0.00 | 0.00 | 71 | 1015.4 |
| 20260830154943 | 71 | 236 | 0.0 | 5.2 | 0.00 | 0.00 | 0.00 | 71 | 1015.7 |
| 20260830153501 | 70 | 232 | 0.9 | 5.2 | 0.00 | 0.00 | 0.00 | 72 | 1015.8 |
| 20260830152501 | 69 | 211 | 0.9 | 5.2 | 0.00 | 0.00 | 0.00 | 73 | 1016.0 |
| 20260830151501 | 68 | 256 | 0.0 | 4.3 | 0.00 | 0.00 | 0.00 | 74 | 1016.2 |
| 20260830150500 | 69 | 184 | 0.0 | 0.0 | 0.00 | 0.00 | 0.00 | 74 | 1016.2 |
| 20260830145501 | 69 | 290 | 0.0 | 0.0 | 0.00 | 0.00 | 0.00 | 73 | 1016.4 |